TimeCST,TemperatureF,Dew PointF,Humidity,Sea Level PressureIn,VisibilityMPH,Wind Direction,Wind SpeedMPH,Gust SpeedMPH,PrecipitationIn,Events,Conditions,WindDirDegrees,DateUTC
12:24 AM,32.0,30.2,93,30.27,9.0,Calm,Calm,-,N/A,,Overcast,0,2013-01-26 06:24:00
12:56 AM,32.0,31.1,96,30.29,10.0,Calm,Calm,-,N/A,,Overcast,0,2013-01-26 06:56:00
1:56 AM,32.0,30.0,92,30.29,10.0,Calm,Calm,-,N/A,,Overcast,0,2013-01-26 07:56:00
2:56 AM,31.1,30.0,96,30.29,9.0,Calm,Calm,-,N/A,,Mostly Cloudy,0,2013-01-26 08:56:00
3:07 AM,30.2,28.4,93,30.29,8.0,Calm,Calm,-,N/A,,Scattered Clouds,0,2013-01-26 09:07:00
3:56 AM,29.1,29.1,100,30.30,3.0,Calm,Calm,-,N/A,,Clear,0,2013-01-26 09:56:00
4:40 AM,26.6,26.6,100,30.30,2.5,Calm,Calm,-,N/A,,Clear,0,2013-01-26 10:40:00
4:56 AM,28.0,28.0,100,30.30,3.0,Calm,Calm,-,N/A,,Clear,0,2013-01-26 10:56:00
5:17 AM,28.4,28.4,100,30.29,4.0,Calm,Calm,-,N/A,,Scattered Clouds,0,2013-01-26 11:17:00
5:26 AM,28.4,28.4,100,30.30,4.0,Calm,Calm,-,N/A,,Mostly Cloudy,0,2013-01-26 11:26:00
5:33 AM,30.2,30.2,100,30.30,4.0,Calm,Calm,-,N/A,,Mostly Cloudy,0,2013-01-26 11:33:00
5:56 AM,30.0,30.0,100,30.32,4.0,Calm,Calm,-,N/A,,Overcast,0,2013-01-26 11:56:00
6:56 AM,31.1,31.1,100,30.33,1.0,Calm,Calm,-,N/A,,Overcast,0,2013-01-26 12:56:00
7:56 AM,31.1,31.1,100,30.34,1.0,Calm,Calm,-,N/A,,Overcast,0,2013-01-26 13:56:00
8:56 AM,32.0,31.1,96,30.35,2.0,Calm,Calm,-,N/A,,Overcast,0,2013-01-26 14:56:00
9:49 AM,35.6,32.0,87,30.36,2.0,Calm,Calm,-,N/A,,Mostly Cloudy,0,2013-01-26 15:49:00
9:56 AM,34.9,32.9,92,30.36,2.0,Calm,Calm,-,N/A,,Mostly Cloudy,0,2013-01-26 15:56:00
10:03 AM,35.6,33.8,93,30.36,6.0,Calm,Calm,-,N/A,,Mostly Cloudy,0,2013-01-26 16:03:00
10:16 AM,37.4,33.8,87,30.35,9.0,Calm,Calm,-,N/A,,Partly Cloudy,0,2013-01-26 16:16:00
10:56 AM,37.9,32.0,79,30.36,10.0,Calm,Calm,-,N/A,,Clear,0,2013-01-26 16:56:00
11:56 AM,41.9,32.9,70,-9999,10.0,Calm,Calm,-,N/A,,Partly Cloudy,0,2013-01-26 17:56:00
12:56 PM,45.0,29.1,54,30.33,10.0,North,3.5,-,N/A,,Clear,10,2013-01-26 18:56:00
1:56 PM,45.9,30.0,54,30.32,10.0,Calm,Calm,-,N/A,,Clear,0,2013-01-26 19:56:00